Location: Unspecified
(0.0000°N, 0.0000°E)
Time: 23:11:04
(UTC+01:00)

GPS 2-12 Rocket1 - Visible Passes

Search period start: 24 February 2017 00:00
Search period end: 06 March 2017 00:00
Orbit: 587 x 653 km, 20.0° (Epoch: 24 February)

Date Brightness Start Highest point End Pass type
(mag) Time Alt. Az. Time Alt. Az. Time Alt. Az.
24 Feb 5.0 21:12:59 10° WNW 21:14:43 22° NW 21:14:43 22° NW visible
25 Feb 5.9 05:57:40 10° S 05:57:58 10° SSE 05:58:15 10° SSE visible
25 Feb 4.1 19:46:22 10° NW 19:50:09 28° NNE 19:53:21 13° ENE visible
25 Feb 5.5 21:29:13 10° WNW 21:30:23 18° WNW 21:30:23 18° WNW visible
26 Feb 5.6 06:11:53 10° SSW 06:14:33 15° SSE 06:17:14 10° SE visible
26 Feb 3.3 20:02:14 10° NW 20:06:31 48° NNE 20:09:02 22° E visible
26 Feb 6.1 21:45:44 10° W 21:46:04 12° W 21:46:04 12° W visible
27 Feb 5.2 06:27:19 10° SSW 06:31:03 22° SSE 06:34:47 10° ESE visible
27 Feb 2.8 20:18:24 10° WNW 20:22:49 88° NNE 20:24:44 34° ESE visible
28 Feb 5.7 05:03:39 13° SSE 05:03:39 13° SSE 05:05:52 10° SE visible
28 Feb 4.6 06:43:03 10° SW 06:47:27 35° SSE 06:51:51 10° E visible
28 Feb 3.5 20:34:51 10° W 20:39:09 51° SSW 20:40:25 38° SSE visible
01 Mar 5.1 05:19:18 19° S 05:20:05 20° SSE 05:23:35 10° ESE visible
01 Mar 4.4 20:51:39 10° W 20:55:31 29° SSW 20:56:06 28° S visible
02 Mar 4.6 05:35:00 26° SSW 05:36:29 31° SSE 05:40:45 10° E visible
02 Mar 5.2 21:08:52 10° WSW 21:11:44 18° SSW 21:11:44 18° SSW visible
03 Mar 3.7 05:50:41 29° SW 05:52:50 52° SSE 05:57:31 10° E visible
03 Mar 4.4 19:40:40 10° W 19:44:41 32° SSW 19:48:40 10° SE visible
03 Mar 5.9 21:26:49 10° SW 21:27:19 11° SSW 21:27:19 11° SSW visible
04 Mar 6.2 04:29:21 11° ESE 04:29:21 11° ESE 04:29:36 10° ESE visible
04 Mar 3.1 06:06:24 25° WSW 06:09:09 89° NNW 06:13:58 10° ENE visible
04 Mar 5.1 19:57:47 10° WSW 20:01:05 20° SSW 20:04:22 10° SSE visible
05 Mar 5.6 04:45:02 19° E 04:45:02 19° E 04:46:27 10° E visible
05 Mar 3.4 06:22:04 17° W 06:25:28 51° NNW 06:30:08 10° NE visible
05 Mar 5.5 20:15:30 10° SW 20:17:34 13° SSW 20:19:38 10° SSE visible
